Home   Weather   Prague   Past weeks

Flag for Czech Republic Past Weather in Prague, Czech Republic — Yesterday and Last 2 Weeks

Now
59 °F

Sunny.


Feels Like: 59 °F
Forecast: 49 / 72 °F
Wind: 2 mph from North

Location: Prague Ruzyne Airport

Current Time: Sep 27, 2016 at 10:54:10 AM

Latest Report: Sep 27, 2016 at 10:30 AM


Visibility: 10 mi

Pressure: 30.30 "Hg

Humidity: 68%

Dew Point: 48 °F

Location of PragueLocation

Past Weather in Prague — Graph

°F

Prague Temperature Yesterday

Maximum temperature yesterday: 66 °F (at 3:00 PM)
Minimum temperature yesterday: 45 °F (at 6:00 AM)
Average temperature yesterday: 55 °F

High & Low Weather Summary for the Past Weeks

 TemperatureHumidityPressure
High86 °F (Sep 12, 3:00 PM)100% (Sep 17, 4:30 AM)30.33 "Hg (Sep 17, 4:30 AM)
Low43 °F (Sep 22, 6:30 AM)35% (Sep 13, 3:00 PM)29.77 "Hg (Sep 17, 12:00 PM)
Average60 °F73%30.07 "Hg
* Reported Sep 12 9:00 AM — Sep 27 9:30 AM, Prague, Weather by CustomWeather, © 2016

Note: Actual official high and low records may vary slightly from our data, if they occured in-between our weather recording intervals... More about our weather records

Advertising

Prague Weather History for the Previous 24 Hours

Scroll right to see more
 ConditionsComfort  
Time TempWeatherWind HumidityBarometerVisibility
9:30 AM
Tue, Sep 27
55 °FSunny.1 mph77%30.27 "Hg10 mi
9:00 AM54 °FClear.3 mph82%30.27 "Hg6 mi
8:30 AM52 °FFog.2 mph94%30.27 "Hg2 mi
8:00 AM48 °FFog.5 mph100%30.27 "Hg2 mi
7:30 AM45 °FFog.3 mph100%30.24 "Hg2 mi
7:00 AM45 °FFog.3 mph100%30.24 "Hg1 mi
6:30 AM46 °FFog.1 mph93%30.24 "Hg2 mi
6:00 AM48 °FFog.3 mph100%30.24 "Hg3 mi
5:30 AM48 °FFog.2 mph94%30.21 "Hg3 mi
5:00 AM48 °FFog.3 mph94%30.21 "Hg3 mi
4:30 AM48 °FClear.2 mph94%30.21 "Hg4 mi
4:00 AM48 °FClear.2 mph94%30.21 "Hg4 mi
3:30 AM50 °FClear.5 mph94%30.21 "Hg5 mi
3:00 AM50 °FClear.3 mph94%30.21 "Hg6 mi
2:30 AM50 °FClear.2 mph88%30.21 "Hg10 mi
2:00 AM52 °FClear.2 mph88%30.21 "Hg10 mi
1:30 AM52 °FClear.3 mph82%30.21 "Hg10 mi
1:00 AM54 °FPassing clouds.3 mph82%30.21 "HgN/A
12:30 AM52 °FClear.3 mph88%30.21 "Hg10 mi
12:00 AM54 °FClear.6 mph82%30.21 "Hg10 mi
11:30 PM
Mon, Sep 26
54 °FClear.5 mph77%30.21 "Hg10 mi
11:00 PM52 °FClear.3 mph82%30.21 "Hg10 mi
10:30 PM54 °FPassing clouds.3 mph82%30.21 "HgN/A
10:00 PM54 °FPassing clouds.3 mph82%30.21 "HgN/A
9:30 PM55 °FClear.2 mph77%30.21 "Hg10 mi
9:00 PM55 °FClear.1 mph77%30.21 "Hg10 mi
8:30 PM57 °FClear.2 mph72%30.18 "Hg10 mi
8:00 PM57 °FClear.3 mph72%30.18 "Hg10 mi
7:30 PM59 °FClear.5 mph68%30.18 "Hg10 mi
7:00 PM59 °FClear.6 mph68%30.18 "Hg10 mi
6:30 PM59 °FSunny.5 mph72%30.15 "Hg10 mi
6:00 PM63 °FSunny.6 mph64%30.15 "Hg10 mi
5:30 PM64 °FPassing clouds.6 mph60%30.15 "HgN/A
5:00 PM64 °FPassing clouds.6 mph60%30.15 "HgN/A
4:30 PM66 °FPassing clouds.5 mph56%30.15 "HgN/A
4:00 PM66 °FPassing clouds.3 mph56%30.15 "HgN/A
3:30 PM66 °FPassing clouds.3 mph56%30.15 "HgN/A
3:00 PM66 °FSunny.2 mph56%30.18 "Hg10 mi
2:30 PM64 °FPassing clouds.3 mph60%30.18 "HgN/A
2:00 PM64 °FPassing clouds.5 mph64%30.18 "HgN/A
1:30 PM63 °FPassing clouds.5 mph64%30.18 "HgN/A
1:00 PM63 °FSunny.5 mph68%30.18 "Hg10 mi
12:30 PM61 °FSunny.6 mph68%30.18 "Hg10 mi
12:00 PM61 °FSunny.5 mph68%30.18 "Hg10 mi
11:30 AM59 °FSunny.6 mph72%30.18 "Hg10 mi
11:00 AM59 °FSunny.3 mph72%30.18 "Hg10 mi
10:30 AM57 °FSunny.2 mph72%30.18 "Hg10 mi
10:00 AM55 °FSunny.2 mph77%30.15 "Hg10 mi
Weather by CustomWeather, © 2016

See weather overviewHow to use our weather pages